Location: Chuathbaluk
(61.5726°N, 159.2454°W)
Time: 18:56:13
(UTC+00:00)

TIGRISAT - Pass Details

Date: 17 January 2021
Orbit: 605 x 688 km, 97.7° (Epoch: 06 March)

Event Time Altitude Azimuth Distance (km) Brightness Sun altitude
Rises 17:52:24 0° 185° (S) 2,860 ? -10.6°
Reaches altitude 10° 17:54:40 10° 194° (SSW) 1,964 ? -10.4°
Maximum altitude 17:58:40 39° 263° (W) 936 ? -9.9°
Drops below altitude 10° 18:02:46 10° 333° (NNW) 2,006 ? -9.5°
Enters shadow 18:03:57 - 338° (NNW) 2,467 ? -9.4°
